ITY770 LIRF-VIDP

Flight info

Callsign ITY770
Flight time N/A
Altitude 38000
Route OKUNO DCT ATRUP DCT PES DCT XOLTA/N0492F390 DCT RAMAP DCT NISVA Q13 UDROS UM859 KARDE UN644 ROLIN DCT TAGAR DCT BT DCT BARAD M747 SUBUT T923 ERLEV L850 BAKUV N701 LARGI B701 TUGTA A909 BABUM A477 MAHYM/N0491F410 A477 POGON/K0915F410 T388 BUPOR Y92 OGNOB Z514 USETU Z407 BUTRA L181 DAROW Z767 VAJEN Z407 FIRUZ/N0497F410 P500 MOTMO/N0499F400 P500 GERRY/N0496F410 P500 ATROL/N0498F400 P500 PS/N0495F410 T400 NONIB L509 SULOM A466 ELKUX ELKUX7H
Aircraft A359/H-SDE2E3GHIJ3J4J5LM1ORWXY/LB1D1

Departure

Time 2026-05-01 12:52
Airport Rome–Fiumicino Leonardo da Vinci International Airport (LIRF)

Arrival

Time N/A
Airport Indira Gandhi International Airport (VIDP)
Time Latitude Longitude Altitude Speed Heading
2026-05-01 12:24 41.79848 12.24653 20 ft 0 kts 160°
2026-05-01 12:41 41.79858 12.24649 24 ft 4 kts 160°
2026-05-01 12:41 41.79884 12.24636 25 ft 4 kts 160°
2026-05-01 12:41 41.79904 12.24626 20 ft 4 kts 165°
2026-05-01 12:42 41.79930 12.24622 24 ft 4 kts 191°
2026-05-01 12:42 41.79953 12.24635 22 ft 4 kts 233°
2026-05-01 12:42 41.79957 12.24642 20 ft 4 kts 250°
2026-05-01 12:42 41.79952 12.24624 20 ft 0 kts 250°
2026-05-01 12:45 41.79912 12.24491 25 ft 10 kts 247°
2026-05-01 12:45 41.79874 12.24413 20 ft 10 kts 228°
2026-05-01 12:45 41.79831 12.24332 20 ft 11 kts 241°
2026-05-01 12:46 41.79797 12.24238 25 ft 11 kts 251°
2026-05-01 12:46 41.79771 12.24133 21 ft 12 kts 251°
2026-05-01 12:46 41.79741 12.24019 23 ft 13 kts 250°
2026-05-01 12:46 41.79707 12.23896 23 ft 15 kts 250°
2026-05-01 12:47 41.79652 12.23793 21 ft 14 kts 199°
2026-05-01 12:47 41.79544 12.23808 23 ft 21 kts 162°
2026-05-01 12:47 41.79396 12.23869 21 ft 22 kts 162°
2026-05-01 12:47 41.79247 12.23930 22 ft 23 kts 163°
2026-05-01 12:48 41.79096 12.23993 22 ft 23 kts 162°
2026-05-01 12:48 41.78942 12.24059 25 ft 23 kts 162°
2026-05-01 12:48 41.78785 12.24124 24 ft 24 kts 162°
2026-05-01 12:48 41.78622 12.24192 23 ft 25 kts 163°
2026-05-01 12:49 41.78457 12.24260 24 ft 25 kts 162°
2026-05-01 12:49 41.78291 12.24329 26 ft 25 kts 166°
2026-05-01 12:49 41.78203 12.24211 22 ft 20 kts 261°
2026-05-01 12:49 41.78241 12.24040 25 ft 18 kts 314°
2026-05-01 12:50 41.78279 12.24011 23 ft 0 kts 340°
2026-05-01 12:51 41.78324 12.23990 24 ft 31 kts 342°
2026-05-01 12:52 41.78754 12.23810 24 ft 96 kts 342°
2026-05-01 12:52 41.80701 12.22999 221 ft 180 kts 343°
2026-05-01 12:52 41.81896 12.22476 910 ft 176 kts 339°
2026-05-01 12:53 41.83367 12.19775 1792 ft 205 kts 289°
2026-05-01 12:53 41.83770 12.17838 2111 ft 226 kts 281°
2026-05-01 12:53 41.83604 12.15695 2514 ft 241 kts 245°
2026-05-01 12:54 41.82488 12.14022 2918 ft 251 kts 209°
2026-05-01 12:54 41.78938 12.13628 4097 ft 264 kts 175°
2026-05-01 12:54 41.77092 12.13792 4803 ft 267 kts 176°
2026-05-01 12:55 41.73340 12.14018 6265 ft 273 kts 176°
2026-05-01 12:55 41.71470 12.14443 6984 ft 275 kts 159°
2026-05-01 12:55 41.69847 12.15707 7737 ft 275 kts 141°
2026-05-01 12:56 41.68366 12.17356 8493 ft 279 kts 138°
2026-05-01 12:56 41.66891 12.19063 9225 ft 282 kts 139°
2026-05-01 12:56 41.65393 12.20788 9965 ft 286 kts 139°
2026-05-01 12:56 41.63862 12.22537 10564 ft 296 kts 138°
2026-05-01 12:57 41.62243 12.24379 10882 ft 316 kts 138°
2026-05-01 12:57 41.59187 12.28979 11394 ft 351 kts 111°
2026-05-01 12:57 41.58741 12.32216 11720 ft 362 kts 86°
2026-05-01 12:58 41.59338 12.35471 12316 ft 364 kts 63°
2026-05-01 12:58 41.60858 12.38172 12980 ft 366 kts 40°
2026-05-01 12:58 41.63041 12.39889 13623 ft 368 kts 20°
2026-05-01 12:59 41.67508 12.43233 14646 ft 374 kts 38°
2026-05-01 12:59 41.69522 12.45471 15263 ft 377 kts 40°
2026-05-01 12:59 41.73482 12.50182 16493 ft 384 kts 41°
2026-05-01 13:00 41.77446 12.55051 17716 ft 390 kts 41°
2026-05-01 13:00 41.79453 12.57532 18324 ft 393 kts 41°
2026-05-01 13:01 41.83810 12.61962 19522 ft 400 kts 34°
2026-05-01 13:01 41.86102 12.64103 20079 ft 403 kts 34°
2026-05-01 13:01 41.90733 12.68439 21224 ft 409 kts 34°
2026-05-01 13:02 41.93074 12.70639 21762 ft 412 kts 34°
2026-05-01 13:07 42.28460 13.42819 30667 ft 479 kts 61°
2026-05-01 13:07 42.29984 13.46768 30919 ft 483 kts 61°
2026-05-01 13:07 42.31539 13.50805 31173 ft 486 kts 61°
2026-05-01 13:08 42.33099 13.54870 31464 ft 487 kts 61°
2026-05-01 13:08 42.34463 13.59067 31802 ft 489 kts 68°
2026-05-01 13:08 42.35423 13.63484 32134 ft 491 kts 75°
2026-05-01 13:08 42.36196 13.67981 32410 ft 492 kts 76°
2026-05-01 13:09 42.36905 13.72524 32689 ft 494 kts 77°
2026-05-01 13:09 42.37578 13.77081 32962 ft 495 kts 77°
2026-05-01 13:09 42.38241 13.81658 33260 ft 495 kts 77°
2026-05-01 13:09 42.38901 13.86238 33543 ft 496 kts 77°
2026-05-01 13:10 42.39564 13.90816 33814 ft 496 kts 77°
2026-05-01 13:10 42.40232 13.95399 34074 ft 497 kts 77°
2026-05-01 13:10 42.40903 13.99991 34330 ft 498 kts 77°
2026-05-01 13:10 42.41575 14.04584 34620 ft 497 kts 77°
2026-05-01 13:11 42.42246 14.09172 34895 ft 497 kts 77°
2026-05-01 13:11 42.42914 14.13761 35165 ft 497 kts 77°
2026-05-01 13:11 42.43581 14.18351 35437 ft 496 kts 77°
2026-05-01 13:11 42.44287 14.22922 35694 ft 496 kts 76°
2026-05-01 13:12 42.45081 14.27467 35945 ft 495 kts 75°
2026-05-01 13:12 42.45912 14.31984 36179 ft 495 kts 74°
2026-05-01 13:12 42.46752 14.36508 36393 ft 495 kts 74°
2026-05-01 13:12 42.47584 14.41035 36603 ft 495 kts 75°
2026-05-01 13:13 42.48402 14.45556 36831 ft 494 kts 75°
2026-05-01 13:13 42.49208 14.50075 37143 ft 491 kts 75°
2026-05-01 13:13 42.50001 14.54570 37302 ft 490 kts 75°
2026-05-01 13:14 42.51561 14.63488 37312 ft 490 kts 75°
2026-05-01 13:14 42.53124 14.72476 37312 ft 490 kts 75°
2026-05-01 13:15 42.54677 14.81449 37312 ft 490 kts 75°
2026-05-01 13:15 42.56228 14.90447 37305 ft 490 kts 75°
2026-05-01 13:16 42.57772 14.99447 37304 ft 490 kts 75°
2026-05-01 13:16 42.59309 15.08454 37304 ft 490 kts 75°
2026-05-01 13:17 42.62363 15.26487 37282 ft 490 kts 76°
2026-05-01 13:18 42.64637 15.40035 37266 ft 491 kts 76°
2026-05-01 13:18 42.66145 15.49080 37266 ft 491 kts 76°
2026-05-01 13:19 42.67648 15.58134 37237 ft 491 kts 76°
2026-05-01 13:20 42.69890 15.71741 37230 ft 492 kts 76°
2026-05-01 13:20 42.71378 15.80815 37233 ft 492 kts 76°
2026-05-01 13:21 42.73574 15.94402 37229 ft 492 kts 76°
2026-05-01 13:21 42.75034 16.03499 37230 ft 492 kts 76°
2026-05-01 13:22 42.76489 16.12602 37234 ft 493 kts 76°
2026-05-01 13:22 42.77705 16.20238 37240 ft 493 kts 76°
2026-05-01 13:23 42.79383 16.30840 37236 ft 493 kts 76°
2026-05-01 13:23 42.80586 16.38479 37233 ft 492 kts 77°
2026-05-01 13:24 42.82013 16.47594 37232 ft 492 kts 77°
2026-05-01 13:25 42.84140 16.61267 37228 ft 491 kts 77°
2026-05-01 13:25 42.85547 16.70376 37227 ft 491 kts 77°
2026-05-01 13:26 42.86938 16.79430 37220 ft 491 kts 77°
2026-05-01 13:26 42.88332 16.88558 37222 ft 491 kts 77°
2026-05-01 13:27 42.89717 16.97676 37219 ft 491 kts 77°
2026-05-01 13:27 42.91780 17.11358 37210 ft 491 kts 77°
2026-05-01 13:28 42.93827 17.25045 37202 ft 491 kts 77°
2026-05-01 13:29 42.96532 17.43317 37194 ft 491 kts 77°
2026-05-01 13:31 43.00531 17.70739 37186 ft 490 kts 77°
2026-05-01 13:32 43.03811 17.93594 37185 ft 490 kts 78°
2026-05-01 13:33 43.07036 18.16408 37181 ft 490 kts 78°
2026-05-01 13:34 43.09594 18.34752 37178 ft 490 kts 78°
2026-05-01 13:35 43.11491 18.48511 37167 ft 490 kts 78°
2026-05-01 13:36 43.13372 18.62278 37195 ft 490 kts 78°
2026-05-01 13:36 43.15240 18.76068 37201 ft 491 kts 78°
2026-05-01 13:37 43.16466 18.85197 37201 ft 491 kts 78°
2026-05-01 13:37 43.17694 18.94400 37202 ft 491 kts 78°
2026-05-01 13:38 43.19522 19.08212 37207 ft 491 kts 78°
2026-05-01 13:39 43.20733 19.17430 37210 ft 491 kts 78°
2026-05-01 13:39 43.21938 19.26666 37211 ft 491 kts 79°
2026-05-01 13:40 43.23133 19.35885 37231 ft 491 kts 79°
2026-05-01 13:40 43.24320 19.45112 37237 ft 491 kts 79°
2026-05-01 13:41 43.25494 19.54288 37240 ft 491 kts 79°
2026-05-01 13:41 43.26667 19.63522 37234 ft 491 kts 79°
2026-05-01 13:42 43.27832 19.72753 37248 ft 491 kts 79°
2026-05-01 13:42 43.28991 19.82002 37248 ft 491 kts 79°
2026-05-01 13:43 43.30141 19.91242 37255 ft 491 kts 79°
2026-05-01 13:43 43.31283 20.00477 37265 ft 491 kts 79°
2026-05-01 13:44 43.32419 20.09729 37266 ft 491 kts 79°
2026-05-01 13:44 43.33548 20.18983 37266 ft 491 kts 79°
2026-05-01 13:45 43.34663 20.28189 37276 ft 491 kts 79°
2026-05-01 13:45 43.35777 20.37457 37276 ft 491 kts 79°
2026-05-01 13:46 43.36884 20.46730 37275 ft 492 kts 79°
2026-05-01 13:46 43.37984 20.56005 37275 ft 492 kts 79°
2026-05-01 13:47 43.39077 20.65292 37276 ft 492 kts 80°
2026-05-01 13:47 43.40164 20.74598 37275 ft 493 kts 80°
2026-05-01 13:48 43.41168 20.83859 37275 ft 493 kts 84°
2026-05-01 13:48 43.40774 20.93264 37274 ft 495 kts 102°
2026-05-01 13:49 43.38952 21.02408 37276 ft 496 kts 106°
2026-05-01 13:49 43.36877 21.11462 37276 ft 497 kts 107°
2026-05-01 13:50 43.34776 21.20513 37284 ft 497 kts 107°
2026-05-01 13:50 43.32696 21.29572 37284 ft 497 kts 107°
2026-05-01 13:51 43.30628 21.38622 37512 ft 496 kts 107°
2026-05-01 13:51 43.29595 21.43133 37726 ft 495 kts 107°
2026-05-01 13:51 43.28562 21.47637 37883 ft 496 kts 107°
2026-05-01 13:51 43.27524 21.52153 38017 ft 496 kts 107°
2026-05-01 13:52 43.26483 21.56669 38170 ft 496 kts 107°
2026-05-01 13:52 43.25439 21.61187 38296 ft 497 kts 107°
2026-05-01 13:52 43.24392 21.65712 38425 ft 498 kts 107°
2026-05-01 13:52 43.23340 21.70245 38549 ft 498 kts 107°
2026-05-01 13:53 43.22302 21.74712 38682 ft 498 kts 107°
2026-05-01 13:53 43.20189 21.83772 38884 ft 500 kts 107°
2026-05-01 13:53 43.19125 21.88321 38982 ft 501 kts 107°
2026-05-01 13:54 43.18061 21.92863 39118 ft 501 kts 107°
2026-05-01 13:54 43.16994 21.97407 39242 ft 501 kts 107°
2026-05-01 13:54 43.14847 22.06522 39294 ft 505 kts 108°
2026-05-01 13:55 43.12681 22.15677 39295 ft 505 kts 108°
2026-05-01 13:55 43.10510 22.24821 39292 ft 505 kts 108°
2026-05-01 13:56 43.08330 22.33961 39293 ft 505 kts 108°
2026-05-01 13:56 43.06144 22.43094 39278 ft 505 kts 108°
2026-05-01 13:57 43.04320 22.50683 39284 ft 505 kts 108°
2026-05-01 13:57 43.01761 22.61290 39290 ft 506 kts 108°
2026-05-01 13:58 42.99551 22.70410 39291 ft 506 kts 108°
2026-05-01 13:58 42.97667 22.79656 39277 ft 505 kts 98°
2026-05-01 13:59 42.97282 22.89209 39280 ft 504 kts 90°
2026-05-01 13:59 42.97307 22.98794 39280 ft 505 kts 89°
2026-05-01 14:00 42.97386 23.08374 39295 ft 505 kts 89°
2026-05-01 14:00 42.97437 23.17964 39293 ft 505 kts 89°
2026-05-01 14:01 42.97459 23.27550 39293 ft 505 kts 89°
2026-05-01 14:01 42.97468 23.37138 39293 ft 505 kts 89°
2026-05-01 14:02 42.97469 23.46726 39294 ft 505 kts 89°
2026-05-01 14:02 42.97463 23.56314 39294 ft 505 kts 89°
2026-05-01 14:03 42.97449 23.65900 39292 ft 505 kts 90°
2026-05-01 14:03 42.97428 23.75425 39293 ft 505 kts 90°
2026-05-01 14:04 42.97399 23.85022 39292 ft 505 kts 90°
2026-05-01 14:04 42.97368 23.93003 39296 ft 505 kts 90°
2026-05-01 14:05 42.97316 24.04208 39295 ft 505 kts 90°
2026-05-01 14:05 42.97262 24.13811 39293 ft 506 kts 90°
2026-05-01 14:06 42.97201 24.23422 39293 ft 506 kts 90°
2026-05-01 14:06 42.97131 24.33023 39295 ft 506 kts 90°
2026-05-01 14:07 42.97053 24.42621 39293 ft 506 kts 90°
2026-05-01 14:08 42.96922 24.57029 39303 ft 506 kts 90°
2026-05-01 14:08 42.96824 24.66637 39302 ft 506 kts 90°
2026-05-01 14:09 42.96719 24.76247 39302 ft 506 kts 90°
2026-05-01 14:09 42.96625 24.84223 39302 ft 506 kts 91°
2026-05-01 14:10 42.96504 24.93830 39304 ft 506 kts 91°
2026-05-01 14:10 42.96375 25.03432 39303 ft 506 kts 91°
2026-05-01 14:11 42.96239 25.13035 39302 ft 506 kts 91°
2026-05-01 14:11 42.96019 25.27437 39312 ft 506 kts 91°
2026-05-01 14:12 42.95863 25.37042 39312 ft 506 kts 91°
2026-05-01 14:12 42.95698 25.46644 39312 ft 506 kts 91°
2026-05-01 14:13 42.95526 25.56185 39312 ft 506 kts 91°
2026-05-01 14:13 42.95345 25.65787 39322 ft 506 kts 91°
2026-05-01 14:14 42.95156 25.75395 39321 ft 506 kts 91°
2026-05-01 14:14 42.94959 25.85007 39321 ft 506 kts 91°
2026-05-01 14:15 42.94755 25.94619 39311 ft 507 kts 91°
2026-05-01 14:15 42.94541 26.04230 39311 ft 507 kts 92°
2026-05-01 14:16 42.94320 26.13850 39312 ft 507 kts 92°
2026-05-01 14:16 42.94091 26.23465 39313 ft 507 kts 92°
2026-05-01 14:17 42.93854 26.33078 39304 ft 507 kts 92°
2026-05-01 14:17 42.93610 26.42629 39303 ft 507 kts 92°
2026-05-01 14:18 42.93357 26.52257 39292 ft 507 kts 92°
2026-05-01 14:18 42.93139 26.60246 39294 ft 507 kts 92°
2026-05-01 14:19 42.92825 26.71485 39289 ft 507 kts 92°
2026-05-01 14:19 42.92548 26.81106 39277 ft 507 kts 92°
2026-05-01 14:20 42.92118 26.95477 39276 ft 507 kts 92°
2026-05-01 14:21 42.91820 27.05089 39278 ft 507 kts 92°
2026-05-01 14:21 42.91514 27.14709 39272 ft 507 kts 93°
2026-05-01 14:22 42.91041 27.29131 39265 ft 507 kts 93°
2026-05-01 14:22 42.90715 27.38747 39260 ft 508 kts 93°
2026-05-01 14:23 42.90380 27.48371 39269 ft 508 kts 93°
2026-05-01 14:23 42.90038 27.57989 39261 ft 508 kts 93°
2026-05-01 14:24 42.89687 27.67616 39266 ft 508 kts 93°
2026-05-01 14:24 42.89328 27.77233 39269 ft 508 kts 93°
2026-05-01 14:25 42.88962 27.86853 39267 ft 508 kts 93°
2026-05-01 14:25 42.88587 27.96474 39269 ft 508 kts 94°
2026-05-01 14:26 42.87987 28.10911 39269 ft 508 kts 94°
2026-05-01 14:27 42.87533 28.20534 39269 ft 509 kts 94°
2026-05-01 14:27 42.87076 28.30081 39267 ft 508 kts 94°
2026-05-01 14:28 42.86380 28.44523 39269 ft 508 kts 94°
2026-05-01 14:28 42.85909 28.54144 39263 ft 508 kts 94°
2026-05-01 14:29 42.85430 28.63758 39254 ft 508 kts 95°
2026-05-01 14:30 42.84447 28.82984 39255 ft 509 kts 95°
2026-05-01 14:31 42.83688 28.97414 39260 ft 509 kts 95°
2026-05-01 14:31 42.83172 29.07028 39258 ft 509 kts 95°
2026-05-01 14:32 42.82648 29.16639 39238 ft 508 kts 95°
2026-05-01 14:32 42.82117 29.26240 39238 ft 508 kts 95°
2026-05-01 14:33 42.81580 29.35786 39238 ft 509 kts 95°
2026-05-01 14:33 42.81032 29.45392 39230 ft 509 kts 95°
2026-05-01 14:34 42.80476 29.54999 39230 ft 509 kts 95°
2026-05-01 14:34 42.79912 29.64604 39231 ft 509 kts 95°
2026-05-01 14:35 42.79339 29.74215 39231 ft 509 kts 95°
2026-05-01 14:35 42.78758 29.83827 39229 ft 509 kts 96°
2026-05-01 14:36 42.78170 29.93427 39220 ft 509 kts 96°
2026-05-01 14:36 42.77574 30.03023 39219 ft 509 kts 96°
2026-05-01 14:37 42.76969 30.12627 39214 ft 509 kts 96°
2026-05-01 14:37 42.76357 30.22226 39206 ft 509 kts 96°
2026-05-01 14:38 42.75740 30.31763 39206 ft 509 kts 96°
2026-05-01 14:38 42.75112 30.41354 39189 ft 509 kts 96°
2026-05-01 14:39 42.74475 30.50948 39182 ft 509 kts 96°
2026-05-01 14:39 42.73831 30.60542 39183 ft 509 kts 96°
2026-05-01 14:40 42.72967 30.70090 39183 ft 508 kts 99°
2026-05-01 14:40 42.71930 30.79599 39183 ft 508 kts 99°
2026-05-01 14:41 42.70908 30.89116 39183 ft 508 kts 99°
2026-05-01 14:41 42.69914 30.98630 39183 ft 508 kts 99°
2026-05-01 14:42 42.68926 31.08142 39175 ft 508 kts 99°
2026-05-01 14:42 42.67937 31.17592 39174 ft 508 kts 99°
2026-05-01 14:43 42.66932 31.27105 39174 ft 508 kts 99°
2026-05-01 14:43 42.65920 31.36603 39174 ft 508 kts 99°
2026-05-01 14:44 42.64898 31.46107 39175 ft 508 kts 100°
2026-05-01 14:44 42.63352 31.60351 39174 ft 508 kts 100°
2026-05-01 14:45 42.61790 31.74570 39175 ft 508 kts 100°
2026-05-01 14:46 42.60739 31.84051 39168 ft 508 kts 100°
2026-05-01 14:46 42.59146 31.98271 39150 ft 508 kts 100°
2026-05-01 14:47 42.58088 32.07751 39140 ft 508 kts 100°
2026-05-01 14:48 42.56476 32.21947 39141 ft 507 kts 101°
2026-05-01 14:48 42.54833 32.36123 39134 ft 507 kts 101°
2026-05-01 14:49 42.52622 32.55021 39137 ft 507 kts 101°
2026-05-01 14:50 42.50389 32.73842 39128 ft 507 kts 101°
2026-05-01 14:51 42.48687 32.88002 39128 ft 507 kts 101°
2026-05-01 14:52 42.46971 33.02133 39119 ft 507 kts 101°
2026-05-01 14:53 42.45238 33.16245 39119 ft 506 kts 101°
2026-05-01 14:53 42.44068 33.25663 39110 ft 506 kts 101°
2026-05-01 14:54 42.42895 33.35066 39110 ft 506 kts 101°
2026-05-01 14:54 42.41715 33.44446 39101 ft 506 kts 102°
2026-05-01 14:55 42.40528 33.53828 39100 ft 505 kts 102°
2026-05-01 14:55 42.39342 33.63144 39092 ft 505 kts 102°
2026-05-01 14:56 42.38142 33.72512 39091 ft 505 kts 102°
2026-05-01 14:56 42.36934 33.81867 39082 ft 505 kts 102°
2026-05-01 14:57 42.35721 33.91222 39082 ft 505 kts 102°
2026-05-01 14:57 42.34092 34.03723 39072 ft 505 kts 102°
2026-05-01 14:58 42.32871 34.12991 39074 ft 505 kts 102°
2026-05-01 14:58 42.31627 34.22385 39056 ft 504 kts 102°
2026-05-01 14:59 42.30394 34.31649 39054 ft 504 kts 102°
2026-05-01 14:59 42.29145 34.40976 39045 ft 504 kts 102°
2026-05-01 15:00 42.27258 34.54944 39045 ft 504 kts 102°
2026-05-01 15:01 42.25985 34.64253 39045 ft 504 kts 102°
2026-05-01 15:01 42.24707 34.73553 39045 ft 504 kts 102°
2026-05-01 15:02 42.23426 34.82844 39045 ft 503 kts 102°
2026-05-01 15:02 42.22135 34.92124 39045 ft 503 kts 103°
2026-05-01 15:03 42.20831 35.01398 39045 ft 503 kts 103°
2026-05-01 15:03 42.19530 35.10606 39045 ft 503 kts 103°
2026-05-01 15:04 42.18215 35.19870 39045 ft 503 kts 103°
2026-05-01 15:04 42.16890 35.29147 39045 ft 505 kts 103°
2026-05-01 15:05 42.15555 35.38439 39045 ft 505 kts 103°
2026-05-01 15:05 42.14217 35.47736 39045 ft 505 kts 103°
2026-05-01 15:06 42.12870 35.57023 39045 ft 505 kts 103°
2026-05-01 15:06 42.11513 35.66314 39054 ft 505 kts 103°
2026-05-01 15:07 42.10158 35.75537 39054 ft 505 kts 103°
2026-05-01 15:07 42.08788 35.84822 39054 ft 505 kts 103°
2026-05-01 15:08 42.07411 35.94095 39061 ft 505 kts 103°
2026-05-01 15:08 42.06025 36.03372 39064 ft 505 kts 103°
2026-05-01 15:09 42.04631 36.12654 39063 ft 505 kts 103°
2026-05-01 15:09 42.03231 36.21922 39063 ft 505 kts 103°
2026-05-01 15:10 42.01822 36.31191 39061 ft 505 kts 103°
2026-05-01 15:10 41.99697 36.45072 39054 ft 505 kts 103°
2026-05-01 15:11 41.97567 36.58872 39050 ft 504 kts 103°
2026-05-01 15:12 41.96132 36.68104 39074 ft 504 kts 103°
2026-05-01 15:12 41.93969 36.81925 39072 ft 504 kts 104°
2026-05-01 15:14 41.90534 37.04979 39074 ft 505 kts 96°
2026-05-01 15:14 41.90140 37.19105 39072 ft 505 kts 92°
2026-05-01 15:15 41.89897 37.37885 39066 ft 505 kts 92°
2026-05-01 15:16 41.89583 37.56713 39063 ft 504 kts 93°
2026-05-01 15:18 41.89137 37.80226 39063 ft 504 kts 93°
2026-05-01 15:19 41.88748 37.99014 39064 ft 504 kts 93°
2026-05-01 15:19 41.88436 38.13114 39054 ft 504 kts 93°
2026-05-01 15:20 41.88107 38.27201 39054 ft 503 kts 93°
2026-05-01 15:21 41.87879 38.36546 39054 ft 503 kts 93°
2026-05-01 15:21 41.87643 38.45929 39054 ft 503 kts 93°
2026-05-01 15:22 41.87273 38.60014 39046 ft 503 kts 94°
2026-05-01 15:22 41.87018 38.69389 39045 ft 503 kts 94°
2026-05-01 15:23 41.86755 38.78764 39045 ft 502 kts 94°
2026-05-01 15:23 41.86485 38.88127 39045 ft 502 kts 94°
2026-05-01 15:24 41.86207 38.97489 39045 ft 502 kts 94°
2026-05-01 15:24 41.85923 39.06789 39045 ft 502 kts 94°
2026-05-01 15:25 41.85631 39.16136 39045 ft 502 kts 94°
2026-05-01 15:25 41.85330 39.25488 39045 ft 501 kts 94°
2026-05-01 15:26 41.85023 39.34831 39036 ft 501 kts 94°
2026-05-01 15:26 41.84708 39.44171 39036 ft 501 kts 94°
2026-05-01 15:27 41.84386 39.53501 39035 ft 501 kts 94°
2026-05-01 15:28 41.83890 39.67485 39037 ft 500 kts 94°
2026-05-01 15:28 41.83550 39.76806 39031 ft 500 kts 94°
2026-05-01 15:29 41.83025 39.90783 39014 ft 500 kts 94°
2026-05-01 15:30 41.82303 40.09352 39016 ft 500 kts 95°
2026-05-01 15:31 41.81156 40.37284 39018 ft 500 kts 95°
2026-05-01 15:32 41.80354 40.55874 39017 ft 500 kts 95°
2026-05-01 15:33 41.80864 40.69781 39027 ft 501 kts 77°
2026-05-01 15:34 41.83567 40.83350 39012 ft 502 kts 75°